Regional Weather Roundup
Issued by NWS Cleveland, OH

Home | Current Version | Previous Version | Text Only | Print | Product List | Glossary On
Versions: 1 2 3 4 5 6 7 8 9 10 11 12 13 14 15 16 17 18 19 20 21 22 23 24 25 26 27 28 29 30 31 32 33 34 35 36 37 38 39 40 41 42 43 44 45 46 47 48 49 50
000
ASUS41 KCLE 290612
RWRCLE
OHIO REGIONAL WEATHER ROUNDUP
NATIONAL WEATHER SERVICE WILMINGTON, OH
200 AM EDT MON MAY 29 2017

NOTE: "FAIR" INDICATES FEW OR NO CLOUDS BELOW 12,000 FEET WITH NO
SIGNIFICANT WEATHER AND/OR OBSTRUCTIONS TO VISIBILITY.

OHZ001>008-015>018-024>027-034-035-043-044-290700-
   NORTHWEST OHIO

CITY           SKY/WX    TMP DP  RH WIND       PRES   REMARKS
DEFIANCE       FAIR      59  57  93 SW6       29.78R
FINDLAY        FAIR      61  56  83 W8        29.77S
TOLEDO EXPRESS FAIR      59  58  96 SW6       29.75R
TOLEDO EXEC    FAIR      63  59  87 W12       29.76R
LIMA           FAIR      59  58  96 SW8       29.81R
$$

OHZ009>014-019>023-028>033-038-089-290700-
   NORTHEAST OHIO

CITY           SKY/WX    TMP DP  RH WIND       PRES   REMARKS
CLE-HOPKINS    CLOUDY    64  60  87 S7        29.76S
CLE-LAKEFRONT  MOCLDY    64  60  87 S12       29.73S
CUY CO. ARPT   NOT AVBL
LORAIN-ELYRIA  LGT RAIN  61  55  81 SW8       29.76R
ASHTABULA      CLOUDY    62  61  96 SW8       29.75S
AKRON-CANTON   MOCLDY    61  58  90 SW6       29.77F
WOOSTER        FAIR      60  59  96 SW6       29.77R
MANSFIELD      MOCLDY    60  60 100 SW6       29.78S
YOUNGSTOWN     LGT RAIN  62  60  93 SW8       29.78R
$$

OHZ042-051>053-060>062-070>072-077>081-290700-
  SOUTHWEST OHIO

CITY           SKY/WX    TMP DP  RH WIND       PRES   REMARKS
CINC-COVINGTON CLOUDY    62  60  93 SW6       29.86R
CINC-LUNKEN    MOCLDY    63  62  97 S8        29.86R
HAMILTON       FAIR      63  63 100 W6        29.86R
DAYTON         FAIR      60  59  96 W8        29.84R
WRIGHT-PAT AFB CLEAR     62  62 100 SW6       29.83R
DAYTON GENERAL FAIR      62  60  93 W3        29.84R
WILMINGTON     CLOUDY    65  65 100 SW10      29.84R
$$

OHZ036-037-039>041-045>050-054>059-063>069-073>076-082>088-290700-
  CENTRAL AND SOUTHEAST OHIO

CITY           SKY/WX    TMP DP  RH WIND       PRES   REMARKS
COLUMBUS       TSTM      64  62  93 W9        29.81R FOG
OSU AIRPORT    CLOUDY    62  61  96 W5        29.80R
BOLTON FIELD   CLOUDY    65  60  86 W6        29.82R
RICKENBACK AFB MOCLDY    65  64  98 W7        29.80S
NEWARK         MOCLDY    65  56  72 CALM      29.80S
MARION         MOCLDY    61  58  90 SW8       29.80S
LANCASTER      FAIR      68  64  87 SW5       29.79F
ZANESVILLE     LGT RAIN  62  60  93 S3        29.81S
NEW PHILLY     LGT RAIN  61  60  97 S6        29.78F
$$




USA.gov is the U.S. government's official web portal to all federal, state and local government web resources and services.